Regional Weather Roundup
Issued by NWS Boston, MA

Home | Current Version | Previous Version | Text Only | Print | Product List | Glossary On
Versions: 1 2 3 4 5 6 7 8 9 10 11 12 13 14 15 16 17 18 19 20 21 22 23 24 25 26 27 28 29 30 31 32 33 34 35 36 37 38 39 40 41 42 43 44 45 46 47 48 49 50
000
ASUS41 KBOX 310110
RWRBOX

REGIONAL WEATHER ROUNDUP
NATIONAL WEATHER SERVICE TAUNTON MA
900 PM EDT THU JUL 30 2015

NOTE:  "FAIR" INDICATES FEW OR NO CLOUDS BELOW 12,000 FEET WITH NO
SIGNIFICANT WEATHER AND/OR OBSTRUCTIONS TO VISIBILITY.  THE FOLLOWING
OBSERVATION LOCATIONS DO NOT REPORT PRESENT WEATHER...PROVINCETOWN...
SMITHFIELD...BLOCK ISLAND...KEENE...AND OXFORD.

MAZALL-310200-
EASTERN MASSACHUSETTS

CITY           SKY/WX    TMP DP  RH WIND       PRES   REMARKS
BOSTON         CLOUDY    77  72  84 SW16      29.78S
BEVERLY        CLOUDY    77  73  87 SW7       29.77R
LAWRENCE       CLOUDY    76  73  91 SW6       29.79S
BEDFORD        CLOUDY    75  72  90 SW10      29.77S
BLUE HILL        N/A     72  71  97 SW16      29.81S
NORWOOD        CLOUDY    75  72  90 SW8       29.79S
MARSHFIELD     CLOUDY    75  72  88 SW12G18   29.81F
PLYMOUTH       LGT RAIN  74  72  93 SW9       29.82F
TAUNTON        LGT RAIN  74  70  87 S7        29.80F
NEW BEDFORD    LGT RAIN  73  70  90 SW10      29.82F
$$

MAZALL-310200-
CAPE COD AND THE ISLANDS

CITY           SKY/WX    TMP DP  RH WIND       PRES   REMARKS
FALMOUTH       DRIZZLE   75  72  88 SW17G24   29.84S
HYANNIS        CLOUDY    77  72  84 SW14G23   29.83R
CHATHAM        CLOUDY    74  73  97 SW8       29.85S
PROVINCETOWN   CLOUDY    73  64  73 SW16      29.82S
NANTUCKET      CLOUDY    72  70  93 S9        29.86S
MARTHAS VNYRD  CLOUDY    75  72  90 SW10      29.84S
$$

MAZALL-310200-
CENTRAL AND WESTERN MASSACHUSETTS

CITY           SKY/WX    TMP DP  RH WIND       PRES   REMARKS
WORCESTER      NOT AVBL
FITCHBURG      MOCLDY    75  71  87 SW3       29.81R
ORANGE         MOCLDY    72  70  93 S7        29.81R
SPRINGFIELD    CLOUDY    74  72  92 S7        29.80R
WESTFIELD      MOCLDY    74  72  93 S6        29.81R FOG
NORTH ADAMS    CLEAR     68  64  87 CALM      29.82R
PITTSFIELD     PTCLDY    72  64  76 W5        29.84R
$$

RIZALL-310200-
RHODE ISLAND

CITY           SKY/WX    TMP DP  RH WIND       PRES   REMARKS
PROVIDENCE     LGT RAIN  74  72  93 S7        29.81F
NEWPORT        LGT RAIN  73  72  96 S9G20     29.82F
BLOCK ISLAND     N/A     73  73 100 SW13      29.84F
SMITHFIELD     CLOUDY    72  72 100 CALM      29.82F
WESTERLY       CLOUDY    74  72  93 SW6       29.83S
$$

CTZALL-310200-
CONNECTICUT

CITY           SKY/WX    TMP DP  RH WIND       PRES   REMARKS
BRADLEY INTL   CLOUDY    74  72  93 S9        29.80R
HARTFORD       CLOUDY    76  73  91 S6        29.80S
BRIDGEPORT     MOCLDY    76  74  93 W6        29.81R
DANBURY        MOCLDY    74  72  93 CALM      29.84R
GROTON         CLOUDY    73  72  96 CALM      29.81F
NEW HAVEN      CLOUDY    74  72  93 SW3       29.82R
CHESTER        NOT AVBL
MERIDEN        CLOUDY    75  72  90 CALM      29.82R
WILLIMANTIC    CLOUDY    75  72  90 S5        29.81F
OXFORD         CLOUDY    75  68  78 CALM      29.86R FOG
$$

MEZ002-015-021-024-NHZ003-005-008-011-012-014-VTZ005-008-310200-
NORTHERN NEW ENGLAND

CITY           SKY/WX    TMP DP  RH WIND       PRES   REMARKS
PORTLAND ME    CLOUDY    75  73  93 SW12      29.72F
BANGOR ME      CLOUDY    72  69  90 S8        29.71S
CONCORD NH     MOCLDY    74  71  91 S5        29.77S
MANCHESTER NH  MOCLDY    75  73  93 S5        29.76S
NASHUA NH      NOT AVBL
PORTSMOUTH NH  LGT RAIN  73  69  88 SW7       29.75S
JAFFREY NH     CLOUDY    74  72  93 SW7       29.82S
KEENE NH       PTCLDY    73  66  78 SW3       29.80R
BURLINGTON VT  PTCLDY    76  69  79 S5        29.74R
MT. WASHINGTON FOG       54  54 100 W52         N/A  VSB 0
$$

NYZ052-076-310200-
EASTERN NEW YORK

CITY           SKY/WX    TMP DP  RH WIND       PRES   REMARKS
ALBANY         PTCLDY    77  60  55 W6        29.81R
NEW YORK CITY  MOCLDY    78  71  79 S8        29.82R
$$

ANZALL-310200-
MARINE OBSERVATIONS

STATION/POSITION TIME  TEMP    WIND        PRES    VSBY  WAVE
                       AIR SEA DIR/SP/G                  HT/PER
                 (UTC) (F)     (DEG/KT/KT) (MB)    (MI)  (FT/S)
BOSTON BUOY      0050   73 70  220/ 14/ 16 1008.4F         2/10
BUZZARDS BAY     0000          240/ 13/ 14 1011.4R
NANTUCKET SOUND  0050   74 74  210/ 14/ 16 1010.2F         1/ 3
MASS BAY-STELLWA 0004   75 72  210/ 14/ 16   N/A    1 7/8  3/ 5
ISLE OF SHOALS   0000   76     260/ 19/ 19 1006.9R
S OF BLOCK IS    0008      73                N/A           4/ 6
$$

......................KEY.........................
  SKY/WX - SKY CONDITION/PRESENT WEATHER
  TMP    - TEMPERATURE IN FAHRENHEIT
  DWPT   - DEWPOINT IN FAHRENHEIT
  RH     - RELATIVE HUMIDITY IN PERCENT
  WIND   - DIRECTION AND SPEED IN MPH
  PRES   - MEAN SEA LEVEL PRESSURE IN INCHES OF HG
  WCI    - WIND CHILL INDEX
  VSB    - VISIBILITY IN MILES
  HX     - HEAT INDEX
  TC     - TEMPERATURE IN CELSIUS
  VRB    - VARIABLE WIND DIRECTION
  N/A    - NOT AVAILABLE


USA.gov is the U.S. government's official web portal to all federal, state and local government web resources and services.